contact:dominique.lefevre@mio.osupytheas.fr, maurice.libes@osupytheas.fr, didier.mallarino@osupytheas.fr
Project:EMSO http://www.emso-fr.org/EMSO-France
Depth: 2436.0 m
Title:EMSO Ligure Ouest : Data MII capteur AQUADOPP
Date,Latitude,Longitude,X_East,Y_North,Z_Up,Amplitude_X,Amplitude_Y,Amplitude_Z,Batterie,SoundSpeed,Heading,Pitch,Roll,Pressure,TIS,Speed,Direction
, degrees North, degrees East, m.s-1, m.s-1,m.s-1, 1, 1, 1, Volt, m.s-1, degree, degree, degree, dbar, degree_C, m.s-1, degree
2021-12-23T00:04:03,42.805,6.029,-0.036,0.025,-0.031,101.0,102.0,101.0,13.4,1505.2,324.7,-0.8,1.8,2470.76,13.28,0.043,304.8
2021-12-23T00:07:03,42.805,6.029,-0.063,0.013,-0.021,100.0,100.0,100.0,13.4,1505.2,325.5,-0.8,1.9,2470.772,13.28,0.064,281.7
2021-12-23T00:10:03,42.805,6.029,-0.053,0.028,0.025,101.0,102.0,99.0,13.4,1505.2,326.4,-0.7,1.8,2470.765,13.28,0.059,297.9
2021-12-23T00:13:03,42.805,6.029,-0.039,0.014,0.017,99.0,102.0,101.0,13.3,1505.2,326.5,-0.8,1.8,2470.763,13.28,0.041,289.7
2021-12-23T00:16:03,42.805,6.029,-0.024,0.015,-0.012,100.0,101.0,101.0,13.3,1505.2,326.4,-0.8,1.8,2470.759,13.28,0.028,302.0
2021-12-23T00:19:03,42.805,6.029,-0.036,0.021,-0.01,100.0,103.0,100.0,13.3,1505.2,326.8,-0.8,1.8,2470.781,13.28,0.041,300.3
2021-12-23T00:22:03,42.805,6.029,-0.042,0.022,-0.028,100.0,101.0,100.0,13.3,1505.2,327.5,-0.8,1.8,2470.732,13.28,0.047,297.6
2021-12-23T00:25:03,42.805,6.029,-0.022,0.021,0.007,101.0,101.0,100.0,13.3,1505.2,330.6,-0.8,1.8,2470.753,13.29,0.03,313.7
2021-12-23T00:28:03,42.805,6.029,-0.028,0.019,0.024,100.0,101.0,100.0,13.4,1505.2,331.6,-0.7,1.8,2470.756,13.28,0.033,304.2
2021-12-23T00:31:03,42.805,6.029,-0.045,0.023,-0.004,101.0,102.0,99.0,13.4,1505.2,324.9,-0.8,1.8,2470.753,13.29,0.05,297.1
2021-12-23T00:34:03,42.805,6.029,-0.041,0.007,-0.031,100.0,102.0,100.0,13.4,1505.2,326.5,-0.7,1.8,2470.744,13.29,0.041,279.7
2021-12-23T00:37:03,42.805,6.029,-0.052,0.025,-0.032,101.0,102.0,100.0,13.4,1505.2,328.8,-0.8,1.8,2470.728,13.29,0.057,295.7
2021-12-23T00:40:03,42.805,6.029,-0.036,0.003,-0.006,103.0,101.0,100.0,13.4,1505.2,329.2,-0.7,1.8,2470.712,13.29,0.036,274.8
2021-12-23T00:43:03,42.805,6.029,-0.038,0.004,-0.047,101.0,101.0,100.0,13.3,1505.2,324.6,-0.7,1.8,2470.738,13.29,0.038,276.0
2021-12-23T00:46:03,42.805,6.029,-0.041,0.022,0.002,101.0,102.0,100.0,13.3,1505.2,327.8,-0.7,1.8,2470.726,13.29,0.046,298.2
2021-12-23T00:49:03,42.805,6.029,-0.03,0.019,0.003,102.0,100.0,100.0,13.4,1505.2,330.5,-0.8,1.8,2470.731,13.29,0.035,302.3
2021-12-23T00:52:03,42.805,6.029,-0.045,0.025,0.0,101.0,100.0,100.0,13.4,1505.2,330.0,-0.7,1.8,2470.768,13.29,0.051,299.1
2021-12-23T00:55:03,42.805,6.029,-0.059,0.036,0.006,101.0,101.0,100.0,13.3,1505.2,324.9,-0.7,1.8,2470.737,13.29,0.069,301.4
2021-12-23T00:58:03,42.805,6.029,-0.031,0.031,0.006,100.0,102.0,99.0,13.4,1505.2,330.1,-0.8,1.8,2470.736,13.29,0.043,315.0
2021-12-23T01:04:03,42.805,6.029,-0.042,0.033,0.034,101.0,103.0,101.0,13.4,1505.2,326.2,-0.7,1.8,2470.758,13.28,0.053,308.2
2021-12-23T01:07:03,42.805,6.029,-0.034,-0.002,-0.054,101.0,102.0,100.0,13.4,1505.2,328.3,-0.8,1.8,2470.749,13.28,0.034,266.6
2021-12-23T01:10:03,42.805,6.029,-0.033,0.015,-0.013,100.0,101.0,100.0,13.4,1505.2,329.2,-0.7,1.8,2470.749,13.28,0.036,294.4
2021-12-23T01:13:03,42.805,6.029,-0.073,0.022,-0.009,100.0,101.0,101.0,13.4,1505.2,327.1,-0.8,1.8,2470.707,13.28,0.076,286.8
2021-12-23T01:16:03,42.805,6.029,-0.032,0.02,-0.008,101.0,102.0,99.0,13.4,1505.2,327.0,-0.7,1.8,2470.716,13.28,0.037,302.0
2021-12-23T01:19:03,42.805,6.029,-0.043,0.015,0.007,100.0,101.0,100.0,13.4,1505.2,328.9,-0.7,1.8,2470.71,13.28,0.045,289.2
2021-12-23T01:22:03,42.805,6.029,-0.035,0.014,-0.015,101.0,101.0,100.0,13.3,1505.2,329.0,-0.8,1.8,2470.747,13.29,0.037,291.8
2021-12-23T01:25:03,42.805,6.029,-0.059,0.025,-0.015,101.0,101.0,99.0,13.3,1505.2,325.7,-0.8,1.8,2470.718,13.29,0.064,293.0
2021-12-23T01:28:03,42.805,6.029,-0.034,0.028,-0.023,100.0,102.0,100.0,13.4,1505.2,329.1,-0.7,1.9,2470.7,13.29,0.044,309.5
2021-12-23T01:31:03,42.805,6.029,-0.064,0.012,-0.028,101.0,102.0,100.0,13.3,1505.2,324.4,-0.7,1.8,2470.746,13.29,0.065,280.6
2021-12-23T01:34:03,42.805,6.029,-0.015,0.028,-0.035,101.0,100.0,100.0,13.4,1505.2,330.9,-0.7,1.8,2470.733,13.29,0.031,331.8
2021-12-23T01:37:03,42.805,6.029,-0.05,0.024,-0.011,102.0,100.0,101.0,13.4,1505.2,327.1,-0.8,1.8,2470.716,13.29,0.055,295.6
2021-12-23T01:40:03,42.805,6.029,-0.013,0.036,0.042,100.0,103.0,98.0,13.4,1505.2,328.8,-0.7,1.8,2470.676,13.29,0.038,340.1
2021-12-23T01:43:03,42.805,6.029,-0.032,0.031,0.009,102.0,102.0,99.0,13.4,1505.2,329.4,-0.8,1.8,2470.7,13.29,0.044,314.1
2021-12-23T01:46:03,42.805,6.029,-0.044,0.017,0.006,102.0,101.0,101.0,13.4,1505.2,323.7,-0.7,1.8,2470.696,13.29,0.047,291.1
2021-12-23T01:49:03,42.805,6.029,-0.042,0.041,0.006,99.0,103.0,100.0,13.3,1505.2,331.7,-0.7,1.8,2470.71,13.29,0.058,314.3
2021-12-23T01:52:03,42.805,6.029,-0.013,0.003,-0.034,100.0,101.0,100.0,13.4,1505.2,325.6,-0.8,1.8,2470.668,13.29,0.013,283.0
2021-12-23T01:55:03,42.805,6.029,-0.049,0.035,0.007,101.0,101.0,100.0,13.4,1505.2,325.5,-0.7,1.8,2470.75,13.29,0.06,305.5
2021-12-23T01:58:03,42.805,6.029,-0.002,0.023,0.012,100.0,101.0,101.0,13.4,1505.2,330.1,-0.7,1.8,2470.702,13.29,0.023,355.0
2021-12-23T02:04:03,42.805,6.029,-0.034,0.02,-0.012,101.0,101.0,100.0,13.4,1505.2,327.5,-0.8,1.8,2470.744,13.28,0.039,300.5
2021-12-23T02:07:03,42.805,6.029,-0.056,0.015,-0.018,101.0,101.0,100.0,13.4,1505.2,329.3,-0.7,1.8,2470.706,13.28,0.057,285.0
2021-12-23T02:10:03,42.805,6.029,-0.03,0.018,-0.025,101.0,103.0,100.0,13.3,1505.2,326.0,-0.8,1.8,2470.679,13.28,0.034,301.0
2021-12-23T02:13:03,42.805,6.029,-0.033,0.023,0.027,100.0,102.0,100.0,13.4,1505.2,326.7,-0.7,1.8,2470.685,13.29,0.04,304.9
2021-12-23T02:16:03,42.805,6.029,-0.042,0.024,-0.004,101.0,102.0,100.0,13.4,1505.2,331.6,-0.7,1.8,2470.704,13.29,0.048,299.7
2021-12-23T02:19:03,42.805,6.029,-0.056,0.025,-0.019,100.0,101.0,100.0,13.4,1505.2,329.9,-0.8,1.8,2470.709,13.29,0.061,294.1
2021-12-23T02:22:03,42.805,6.029,-0.052,0.028,0.011,98.0,102.0,101.0,13.4,1505.2,325.4,-0.8,1.8,2470.696,13.29,0.059,298.3
2021-12-23T02:25:03,42.805,6.029,-0.017,0.012,0.008,101.0,101.0,100.0,13.4,1505.2,326.3,-0.8,1.8,2470.676,13.29,0.02,305.2
2021-12-23T02:28:03,42.805,6.029,-0.035,0.041,-0.013,101.0,101.0,101.0,13.3,1505.2,326.2,-0.8,1.8,2470.724,13.29,0.053,319.5
2021-12-23T02:31:03,42.805,6.029,-0.059,0.018,-0.01,101.0,101.0,101.0,13.4,1505.2,328.9,-0.8,1.8,2470.711,13.29,0.061,287.0
2021-12-23T02:34:03,42.805,6.029,-0.027,0.034,0.025,101.0,103.0,99.0,13.3,1505.2,325.9,-0.8,1.8,2470.697,13.29,0.043,321.5
2021-12-23T02:37:03,42.805,6.029,-0.035,0.023,0.0,102.0,101.0,100.0,13.4,1505.2,329.5,-0.8,1.9,2470.694,13.29,0.041,303.3
2021-12-23T02:40:03,42.805,6.029,-0.034,0.05,0.03,100.0,101.0,100.0,13.4,1505.2,328.5,-0.7,1.8,2470.683,13.29,0.06,325.8
2021-12-23T02:43:03,42.805,6.029,-0.029,0.046,0.017,101.0,101.0,100.0,13.3,1505.2,330.4,-0.8,1.8,2470.668,13.29,0.054,327.8
2021-12-23T02:46:03,42.805,6.029,-0.023,0.009,-0.024,101.0,101.0,101.0,13.4,1505.2,326.3,-0.7,1.8,2470.674,13.29,0.024,291.4
2021-12-23T02:49:03,42.805,6.029,-0.048,-0.002,-0.05,100.0,101.0,100.0,13.4,1505.2,325.7,-0.7,1.8,2470.69,13.29,0.048,267.6
2021-12-23T02:52:03,42.805,6.029,-0.018,0.011,0.002,100.0,99.0,101.0,13.4,1505.2,331.4,-0.7,1.8,2470.707,13.29,0.021,301.4
2021-12-23T02:55:03,42.805,6.029,-0.045,0.039,0.004,100.0,102.0,100.0,13.4,1505.2,328.0,-0.8,1.8,2470.676,13.29,0.059,310.9
2021-12-23T02:58:03,42.805,6.029,-0.044,0.013,-0.005,100.0,101.0,100.0,13.3,1505.2,329.4,-0.8,1.8,2470.676,13.29,0.045,286.5
2021-12-23T03:04:03,42.805,6.029,-0.036,0.014,-0.004,100.0,101.0,100.0,13.4,1505.2,327.8,-0.8,1.8,2470.718,13.28,0.038,291.2
2021-12-23T03:07:03,42.805,6.029,-0.038,0.034,0.003,100.0,102.0,100.0,13.4,1505.2,326.9,-0.8,1.8,2470.719,13.28,0.05,311.8
2021-12-23T03:10:03,42.805,6.029,-0.027,0.014,-0.003,102.0,100.0,100.0,13.3,1505.2,325.0,-0.8,1.8,2470.698,13.28,0.03,297.4
2021-12-23T03:13:03,42.805,6.029,-0.023,0.035,0.007,100.0,101.0,100.0,13.4,1505.2,324.1,-0.8,1.8,2470.695,13.29,0.041,326.7
2021-12-23T03:16:03,42.805,6.029,-0.01,0.022,0.0,100.0,102.0,101.0,13.4,1505.2,328.0,-0.7,1.8,2470.732,13.29,0.024,335.6
2021-12-23T03:19:03,42.805,6.029,-0.036,0.027,-0.027,102.0,101.0,100.0,13.3,1505.2,326.0,-0.8,1.8,2470.674,13.29,0.045,306.9
2021-12-23T03:22:03,42.805,6.029,-0.043,0.021,-0.029,101.0,101.0,99.0,13.4,1505.2,324.4,-0.8,1.8,2470.678,13.29,0.047,296.0
2021-12-23T03:25:03,42.805,6.029,-0.029,0.021,0.014,100.0,101.0,100.0,13.3,1505.2,330.4,-0.8,1.8,2470.678,13.29,0.035,305.9
2021-12-23T03:28:03,42.805,6.029,-0.037,0.028,0.01,102.0,101.0,101.0,13.3,1505.2,328.9,-0.7,1.8,2470.689,13.29,0.046,307.1
2021-12-23T03:31:03,42.805,6.029,-0.033,0.017,-0.02,101.0,101.0,101.0,13.4,1505.2,331.1,-0.7,1.8,2470.697,13.29,0.037,297.3
2021-12-23T03:34:03,42.805,6.029,-0.011,0.02,-0.006,102.0,101.0,99.0,13.3,1505.2,327.0,-0.8,1.9,2470.659,13.29,0.022,331.2
2021-12-23T03:37:03,42.805,6.029,-0.038,0.027,-0.017,101.0,101.0,100.0,13.4,1505.2,326.0,-0.8,1.8,2470.669,13.29,0.046,305.4
2021-12-23T03:40:03,42.805,6.029,-0.034,0.019,-0.003,102.0,103.0,99.0,13.3,1505.2,326.4,-0.8,1.8,2470.691,13.29,0.038,299.2
2021-12-23T03:43:03,42.805,6.029,-0.037,0.003,-0.019,100.0,101.0,100.0,13.4,1505.2,329.1,-0.8,1.8,2470.69,13.29,0.037,274.6
2021-12-23T03:46:03,42.805,6.029,-0.029,0.008,-0.014,100.0,103.0,99.0,13.4,1505.2,329.8,-0.8,1.8,2470.667,13.29,0.03,285.4
2021-12-23T03:49:03,42.805,6.029,-0.024,0.013,-0.011,101.0,102.0,99.0,13.4,1505.2,331.0,-0.7,1.8,2470.705,13.29,0.027,298.4
2021-12-23T03:52:03,42.805,6.029,-0.04,0.005,-0.034,100.0,101.0,101.0,13.4,1505.2,326.0,-0.7,1.8,2470.691,13.29,0.04,277.1
2021-12-23T03:55:03,42.805,6.029,-0.012,0.012,0.0,103.0,101.0,100.0,13.4,1505.2,326.5,-0.7,1.8,2470.721,13.29,0.016,315.0
2021-12-23T03:58:03,42.805,6.029,-0.026,0.012,-0.015,101.0,102.0,100.0,13.4,1505.2,324.0,-0.7,1.8,2470.663,13.29,0.028,294.8
2021-12-23T04:04:03,42.805,6.029,-0.044,0.007,-0.021,101.0,101.0,99.0,13.3,1505.2,331.7,-0.8,1.9,2470.726,13.28,0.044,279.0
2021-12-23T04:07:03,42.805,6.029,-0.003,-0.002,-0.023,101.0,101.0,101.0,13.3,1505.2,329.8,-0.7,1.8,2470.703,13.28,0.003,236.3
2021-12-23T04:10:03,42.805,6.029,-0.018,0.007,-0.01,100.0,102.0,99.0,13.3,1505.2,324.8,-0.8,1.8,2470.662,13.28,0.019,291.2
2021-12-23T04:13:03,42.805,6.029,-0.034,0.015,-0.013,100.0,101.0,100.0,13.4,1505.2,327.4,-0.7,1.8,2470.686,13.28,0.037,293.8
2021-12-23T04:16:03,42.805,6.029,-0.027,0.014,-0.011,100.0,101.0,100.0,13.4,1505.2,326.3,-0.7,1.8,2470.69,13.28,0.03,297.4
2021-12-23T04:19:03,42.805,6.029,-0.026,0.014,0.017,100.0,101.0,99.0,13.4,1505.2,329.0,-0.7,1.8,2470.704,13.28,0.029,298.3
2021-12-23T04:22:03,42.805,6.029,-0.038,0.031,-0.03,100.0,101.0,100.0,13.4,1505.2,325.7,-0.7,1.8,2470.689,13.29,0.049,309.2
2021-12-23T04:25:03,42.805,6.029,-0.052,0.027,-0.001,100.0,100.0,103.0,13.3,1505.2,326.3,-0.8,1.8,2470.716,13.29,0.058,297.4
2021-12-23T04:28:03,42.805,6.029,-0.012,0.027,0.028,100.0,101.0,100.0,13.4,1505.2,327.3,-0.8,1.8,2470.698,13.29,0.029,336.0
2021-12-23T04:31:03,42.805,6.029,-0.038,0.002,-0.03,102.0,100.0,100.0,13.3,1505.2,327.3,-0.8,1.8,2470.72,13.29,0.038,273.0
2021-12-23T04:34:03,42.805,6.029,-0.015,0.037,-0.005,101.0,102.0,100.0,13.4,1505.2,327.7,-0.8,1.8,2470.719,13.29,0.039,337.9
2021-12-23T04:37:03,42.805,6.029,-0.04,0.01,-0.021,100.0,101.0,100.0,13.3,1505.2,326.9,-0.8,1.8,2470.703,13.29,0.041,284.0
2021-12-23T04:40:03,42.805,6.029,-0.024,0.035,-0.059,101.0,99.0,101.0,13.4,1505.2,331.6,-0.8,1.8,2470.69,13.29,0.042,325.6
2021-12-23T04:43:03,42.805,6.029,-0.023,0.005,0.003,100.0,102.0,100.0,13.4,1505.2,327.3,-0.7,1.8,2470.675,13.29,0.023,282.3
2021-12-23T04:46:03,42.805,6.029,-0.032,0.02,-0.021,100.0,101.0,101.0,13.4,1505.2,326.8,-0.8,1.8,2470.685,13.29,0.037,302.0
2021-12-23T04:49:03,42.805,6.029,-0.041,0.012,-0.02,100.0,100.0,100.0,13.4,1505.2,327.4,-0.8,1.8,2470.707,13.29,0.042,286.3
2021-12-23T04:52:03,42.805,6.029,-0.04,0.024,0.011,100.0,101.0,100.0,13.4,1505.2,330.9,-0.7,1.8,2470.696,13.29,0.046,301.0
2021-12-23T04:55:03,42.805,6.029,-0.011,0.011,-0.013,99.0,101.0,100.0,13.4,1505.2,326.9,-0.7,1.8,2470.682,13.29,0.015,315.0
2021-12-23T04:58:03,42.805,6.029,-0.003,0.005,0.017,103.0,99.0,100.0,13.4,1505.2,329.1,-0.8,1.8,2470.688,13.29,0.005,329.0
2021-12-23T05:04:03,42.805,6.029,-0.02,0.002,-0.038,101.0,100.0,100.0,13.4,1505.2,326.8,-0.8,1.8,2470.725,13.28,0.02,275.7
2021-12-23T05:07:03,42.805,6.029,-0.024,0.006,-0.012,101.0,101.0,100.0,13.4,1505.2,326.1,-0.8,1.8,2470.714,13.28,0.024,284.0
2021-12-23T05:10:03,42.805,6.029,-0.014,0.035,0.032,100.0,101.0,100.0,13.3,1505.2,331.2,-0.8,1.8,2470.717,13.28,0.037,338.2
2021-12-23T05:13:03,42.805,6.029,-0.043,0.0,-0.05,100.0,101.0,100.0,13.4,1505.2,324.1,-0.7,1.8,2470.681,13.28,0.043,270.0
2021-12-23T05:16:03,42.805,6.029,-0.04,0.045,0.01,99.0,103.0,100.0,13.4,1505.2,328.5,-0.8,1.8,2470.741,13.29,0.06,318.4
2021-12-23T05:19:03,42.805,6.029,-0.024,-0.002,-0.028,101.0,100.0,101.0,13.4,1505.2,330.4,-0.8,1.8,2470.759,13.29,0.024,265.2
2021-12-23T05:22:03,42.805,6.029,-0.036,0.017,0.007,100.0,101.0,100.0,13.4,1505.2,324.7,-0.8,1.8,2470.722,13.29,0.039,295.3
2021-12-23T05:25:03,42.805,6.029,-0.028,0.026,-0.046,101.0,101.0,100.0,13.4,1505.2,327.1,-0.7,1.8,2470.712,13.29,0.038,312.9
2021-12-23T05:28:03,42.805,6.029,-0.039,0.045,0.044,100.0,102.0,99.0,13.3,1505.2,326.8,-0.8,1.8,2470.744,13.29,0.059,319.1
2021-12-23T05:31:03,42.805,6.029,-0.031,0.011,-0.02,101.0,101.0,100.0,13.4,1505.2,327.2,-0.8,1.8,2470.74,13.29,0.032,289.5
2021-12-23T05:34:03,42.805,6.029,-0.01,0.014,0.011,100.0,101.0,99.0,13.4,1505.2,330.8,-0.7,1.8,2470.687,13.29,0.017,324.5
2021-12-23T05:37:03,42.805,6.029,-0.004,0.01,-0.011,100.0,101.0,100.0,13.3,1505.2,327.0,-0.7,1.8,2470.724,13.29,0.01,338.2
2021-12-23T05:40:03,42.805,6.029,-0.025,0.027,0.008,101.0,101.0,100.0,13.4,1505.2,330.1,-0.7,1.8,2470.707,13.29,0.036,317.2
2021-12-23T05:43:03,42.805,6.029,-0.043,0.034,0.025,100.0,100.0,100.0,13.4,1505.2,324.1,-0.7,1.8,2470.742,13.29,0.054,308.3
2021-12-23T05:46:03,42.805,6.029,-0.028,0.027,0.011,101.0,100.0,99.0,13.4,1505.2,329.6,-0.8,1.8,2470.743,13.29,0.038,314.0
2021-12-23T05:49:03,42.805,6.029,-0.011,0.01,0.009,102.0,101.0,100.0,13.3,1505.2,326.5,-0.8,1.8,2470.715,13.29,0.014,312.3
2021-12-23T05:52:03,42.805,6.029,-0.012,0.04,0.023,100.0,101.0,100.0,13.3,1505.2,329.6,-0.7,1.8,2470.741,13.29,0.041,343.3
2021-12-23T05:55:03,42.805,6.029,-0.037,0.008,-0.028,101.0,101.0,100.0,13.4,1505.2,328.0,-0.8,1.8,2470.729,13.29,0.037,282.2
2021-12-23T05:58:03,42.805,6.029,-0.023,0.044,0.016,101.0,100.0,100.0,13.4,1505.2,329.6,-0.7,1.8,2470.723,13.29,0.049,332.4
2021-12-23T06:04:03,42.805,6.029,-0.028,0.019,-0.015,100.0,101.0,100.0,13.3,1505.2,323.7,-0.8,1.8,2470.739,13.28,0.033,304.2
2021-12-23T06:07:03,42.805,6.029,-0.032,0.029,-0.02,102.0,101.0,100.0,13.3,1505.2,323.9,-0.8,1.9,2470.763,13.28,0.043,312.2
2021-12-23T06:10:03,42.805,6.029,-0.031,0.03,-0.003,99.0,101.0,101.0,13.3,1505.2,326.0,-0.7,1.9,2470.76,13.28,0.043,314.1
2021-12-23T06:13:03,42.805,6.029,-0.003,0.019,0.012,100.0,101.0,100.0,13.4,1505.2,324.2,-0.7,1.8,2470.766,13.29,0.019,351.0
2021-12-23T06:16:03,42.805,6.029,-0.027,0.026,0.014,100.0,101.0,100.0,13.4,1505.2,326.0,-0.7,1.8,2470.774,13.29,0.037,313.9
2021-12-23T06:19:03,42.805,6.029,-0.029,0.027,-0.004,102.0,100.0,100.0,13.3,1505.2,325.5,-0.7,1.8,2470.75,13.29,0.039,313.0
2021-12-23T06:22:03,42.805,6.029,-0.019,0.008,-0.012,100.0,101.0,101.0,13.4,1505.2,326.1,-0.8,1.8,2470.77,13.29,0.02,292.8
2021-12-23T06:25:03,42.805,6.029,-0.005,0.004,0.001,100.0,101.0,100.0,13.3,1505.2,329.9,-0.7,1.8,2470.754,13.29,0.006,308.7
2021-12-23T06:28:03,42.805,6.029,-0.023,0.026,-0.008,101.0,101.0,99.0,13.4,1505.2,330.8,-0.8,1.8,2470.746,13.29,0.034,318.5
2021-12-23T06:31:03,42.805,6.029,-0.003,0.009,0.013,101.0,102.0,100.0,13.3,1505.2,330.4,-0.8,1.8,2470.763,13.29,0.009,341.6
2021-12-23T06:34:03,42.805,6.029,-0.014,0.038,0.022,101.0,102.0,101.0,13.4,1505.2,329.8,-0.8,1.8,2470.761,13.29,0.04,339.8
2021-12-23T06:37:03,42.805,6.029,-0.047,0.028,0.011,101.0,101.0,100.0,13.4,1505.2,324.8,-0.7,1.8,2470.755,13.29,0.054,300.8
2021-12-23T06:40:03,42.805,6.029,-0.016,-0.006,-0.015,101.0,101.0,100.0,13.4,1505.2,323.7,-0.8,1.8,2470.777,13.29,0.017,249.4
2021-12-23T06:43:03,42.805,6.029,-0.015,0.015,-0.024,101.0,101.0,100.0,13.4,1505.2,329.1,-0.8,1.8,2470.766,13.29,0.021,315.0
2021-12-23T06:46:03,42.805,6.029,-0.016,0.003,-0.015,100.0,101.0,100.0,13.4,1505.2,324.5,-0.8,1.8,2470.811,13.29,0.016,280.6
2021-12-23T06:49:03,42.805,6.029,-0.015,0.014,-0.001,101.0,101.0,100.0,13.3,1505.2,330.9,-0.8,1.8,2470.767,13.29,0.02,313.0
2021-12-23T06:52:03,42.805,6.029,-0.022,0.019,-0.007,100.0,101.0,100.0,13.4,1505.2,327.5,-0.8,1.8,2470.777,13.29,0.029,310.8
2021-12-23T06:55:03,42.805,6.029,-0.031,0.016,0.001,101.0,101.0,100.0,13.3,1505.2,325.2,-0.8,1.8,2470.767,13.29,0.034,297.3
2021-12-23T06:58:03,42.805,6.029,-0.005,0.024,0.0,101.0,101.0,101.0,13.4,1505.2,327.0,-0.8,1.8,2470.821,13.29,0.024,348.2
2021-12-23T07:04:03,42.805,6.029,-0.019,0.001,-0.015,101.0,101.0,100.0,13.4,1505.2,327.3,-0.8,1.8,2470.855,13.28,0.019,273.0
2021-12-23T07:07:03,42.805,6.029,-0.033,0.023,0.012,101.0,101.0,101.0,13.4,1505.2,329.2,-0.7,1.8,2470.807,13.28,0.04,304.9
2021-12-23T07:10:03,42.805,6.029,-0.002,-0.004,-0.038,102.0,99.0,99.0,13.4,1505.2,329.3,-0.8,1.8,2470.809,13.29,0.004,206.6
2021-12-23T07:13:03,42.805,6.029,-0.031,0.03,-0.018,100.0,101.0,100.0,13.3,1505.2,331.3,-0.7,1.8,2470.874,13.29,0.043,314.1
2021-12-23T07:16:03,42.805,6.029,-0.013,0.006,-0.034,101.0,101.0,100.0,13.4,1505.2,324.9,-0.8,1.9,2470.833,13.29,0.014,294.8
2021-12-23T07:19:03,42.805,6.029,-0.024,0.018,-0.021,101.0,101.0,100.0,13.4,1505.2,325.9,-0.8,1.8,2470.813,13.29,0.03,306.9
2021-12-23T07:22:03,42.805,6.029,-0.013,0.013,-0.017,100.0,101.0,100.0,13.3,1505.2,325.9,-0.8,1.8,2470.846,13.29,0.018,315.0
2021-12-23T07:25:03,42.805,6.029,-0.012,0.022,-0.005,100.0,101.0,100.0,13.3,1505.2,331.7,-0.8,1.8,2470.831,13.29,0.025,331.4
2021-12-23T07:28:03,42.805,6.029,-0.035,0.012,-0.038,100.0,102.0,100.0,13.4,1505.2,324.4,-0.8,1.8,2470.856,13.29,0.037,288.9
2021-12-23T07:31:03,42.805,6.029,-0.011,0.01,-0.017,101.0,101.0,100.0,13.4,1505.2,327.0,-0.7,1.8,2470.844,13.29,0.014,312.3
2021-12-23T07:34:03,42.805,6.029,-0.038,0.012,-0.013,102.0,102.0,100.0,13.4,1505.2,326.3,-0.7,1.8,2470.837,13.29,0.039,287.5
2021-12-23T07:37:03,42.805,6.029,0.001,0.006,-0.008,101.0,100.0,100.0,13.4,1505.2,326.0,-0.8,1.8,2470.864,13.29,0.006,9.5
2021-12-23T07:40:03,42.805,6.029,-0.021,-0.004,-0.006,102.0,101.0,100.0,13.4,1505.2,329.8,-0.8,1.8,2470.865,13.29,0.021,259.2
2021-12-23T07:43:03,42.805,6.029,-0.033,0.028,-0.007,102.0,100.0,100.0,13.3,1505.2,331.3,-0.8,1.8,2470.844,13.29,0.043,310.3
2021-12-23T07:46:03,42.805,6.029,0.002,0.011,-0.012,100.0,101.0,100.0,13.4,1505.2,330.2,-0.8,1.8,2470.868,13.29,0.011,10.3
2021-12-23T07:49:03,42.805,6.029,-0.01,0.003,-0.008,101.0,101.0,100.0,13.3,1505.2,326.7,-0.7,1.8,2470.852,13.29,0.01,286.7
2021-12-23T07:52:03,42.805,6.029,-0.029,0.003,-0.01,99.0,103.0,101.0,13.4,1505.2,327.3,-0.7,1.8,2470.896,13.29,0.029,275.9
2021-12-23T07:55:03,42.805,6.029,-0.006,0.02,0.004,101.0,101.0,100.0,13.3,1505.2,329.4,-0.7,1.8,2470.891,13.29,0.02,343.3
2021-12-23T07:58:03,42.805,6.029,-0.044,0.037,0.008,100.0,101.0,100.0,13.4,1505.2,325.2,-0.8,1.8,2470.882,13.29,0.057,310.1
2021-12-23T08:04:03,42.805,6.029,-0.048,0.023,-0.014,101.0,101.0,100.0,13.4,1505.2,326.7,-0.7,1.8,2470.912,13.28,0.053,295.6
2021-12-23T08:07:03,42.805,6.029,0.009,0.015,-0.006,100.0,101.0,100.0,13.3,1505.2,326.2,-0.8,1.8,2470.897,13.28,0.017,31.0
2021-12-23T08:10:03,42.805,6.029,-0.004,0.0,-0.017,100.0,101.0,100.0,13.4,1505.2,324.2,-0.8,1.8,2470.892,13.28,0.004,270.0
2021-12-23T08:13:03,42.805,6.029,-0.043,0.02,-0.02,101.0,101.0,100.0,13.3,1505.2,326.8,-0.8,1.8,2470.907,13.29,0.047,294.9
2021-12-23T08:16:03,42.805,6.029,-0.006,0.017,-0.005,101.0,101.0,100.0,13.3,1505.2,331.1,-0.7,1.8,2470.887,13.29,0.018,340.6
2021-12-23T08:19:03,42.805,6.029,-0.032,0.013,-0.012,100.0,101.0,100.0,13.3,1505.2,328.2,-0.8,1.8,2470.897,13.29,0.034,292.1
2021-12-23T08:22:03,42.805,6.029,-0.005,0.024,0.0,101.0,100.0,100.0,13.4,1505.2,329.6,-0.8,1.8,2470.906,13.29,0.024,348.2
2021-12-23T08:25:03,42.805,6.029,-0.019,0.01,-0.016,101.0,101.0,100.0,13.4,1505.2,328.5,-0.8,1.8,2470.913,13.29,0.021,297.8
2021-12-23T08:28:03,42.805,6.029,-0.021,0.022,-0.021,102.0,99.0,99.0,13.4,1505.2,328.0,-0.7,1.8,2470.88,13.29,0.03,316.3
2021-12-23T08:31:03,42.805,6.029,-0.04,0.007,-0.048,101.0,100.0,100.0,13.3,1505.2,331.6,-0.7,1.8,2470.903,13.29,0.04,279.9
2021-12-23T08:34:03,42.805,6.029,-0.035,0.024,-0.035,101.0,101.0,100.0,13.4,1505.2,328.4,-0.8,1.8,2470.902,13.29,0.042,304.4
2021-12-23T08:37:03,42.805,6.029,-0.016,0.006,-0.017,101.0,102.0,99.0,13.4,1505.2,330.0,-0.8,1.8,2470.904,13.29,0.017,290.6
2021-12-23T08:40:03,42.805,6.029,-0.018,0.017,-0.014,103.0,101.0,99.0,13.4,1505.2,328.5,-0.8,1.9,2470.91,13.29,0.024,313.4
2021-12-23T08:43:03,42.805,6.029,-0.02,0.012,-0.026,100.0,100.0,100.0,13.3,1505.2,329.1,-0.7,1.8,2470.876,13.29,0.023,301.0
2021-12-23T08:46:03,42.805,6.029,-0.038,0.027,-0.022,100.0,100.0,100.0,13.4,1505.2,328.6,-0.8,1.8,2470.941,13.29,0.046,305.4
2021-12-23T08:49:03,42.805,6.029,-0.029,0.02,-0.027,101.0,99.0,100.0,13.4,1505.2,331.1,-0.8,1.8,2470.906,13.29,0.035,304.6
2021-12-23T08:52:03,42.805,6.029,-0.025,0.025,0.02,101.0,100.0,99.0,13.3,1505.2,323.9,-0.8,1.8,2470.899,13.29,0.035,315.0
2021-12-23T08:55:03,42.805,6.029,-0.016,0.015,-0.023,100.0,100.0,100.0,13.3,1505.2,329.5,-0.8,1.8,2470.897,13.29,0.021,313.1
2021-12-23T08:58:03,42.805,6.029,-0.007,0.004,-0.003,100.0,101.0,99.0,13.4,1505.2,329.6,-0.7,1.9,2470.89,13.29,0.008,299.7
2021-12-23T09:01:03,42.805,6.029,-0.036,0.027,0.002,102.0,102.0,100.0,13.4,1505.2,329.9,-0.8,1.8,2470.902,13.29,0.045,306.9
2021-12-23T09:04:03,42.805,6.029,-0.026,0.009,-0.01,100.0,101.0,100.0,13.4,1505.2,329.6,-0.7,1.8,2470.9,13.29,0.027,289.1
2021-12-23T09:07:03,42.805,6.029,-0.016,0.033,0.044,101.0,101.0,101.0,13.3,1505.2,327.8,-0.8,1.8,2470.917,13.29,0.036,334.1
2021-12-23T09:10:03,42.805,6.029,-0.014,0.003,0.0,101.0,101.0,100.0,13.3,1505.2,329.7,-0.7,1.8,2470.917,13.29,0.014,282.1
2021-12-23T09:13:03,42.805,6.029,-0.023,0.025,-0.015,101.0,100.0,100.0,13.4,1505.2,328.6,-0.7,1.8,2470.914,13.29,0.033,317.4
2021-12-23T09:16:03,42.805,6.029,-0.026,0.022,-0.009,100.0,101.0,100.0,13.4,1505.2,331.5,-0.7,1.8,2470.95,13.29,0.034,310.2
2021-12-23T09:19:03,42.805,6.029,-0.042,0.0,-0.027,101.0,101.0,100.0,13.4,1505.2,327.7,-0.8,1.8,2470.874,13.29,0.042,270.0
2021-12-23T09:22:03,42.805,6.029,-0.028,0.02,0.008,100.0,101.0,100.0,13.3,1505.2,324.6,-0.8,1.8,2470.939,13.29,0.034,305.5
2021-12-23T09:25:03,42.805,6.029,-0.036,0.007,-0.033,100.0,99.0,101.0,13.4,1505.2,329.9,-0.8,1.9,2470.922,13.29,0.036,281.0
2021-12-23T09:28:03,42.805,6.029,-0.024,0.006,-0.026,101.0,101.0,99.0,13.4,1505.2,330.9,-0.8,1.8,2470.916,13.29,0.024,284.0
2021-12-23T09:31:03,42.805,6.029,0.0,0.017,0.012,101.0,102.0,99.0,13.3,1505.2,326.0,-0.8,1.8,2470.914,13.29,0.017,0.0
2021-12-23T09:34:03,42.805,6.029,-0.016,-0.011,0.011,99.0,103.0,99.0,13.4,1505.2,326.0,-0.8,1.8,2470.939,13.29,0.019,235.5
2021-12-23T09:37:03,42.805,6.029,-0.021,0.009,0.0,100.0,101.0,100.0,13.4,1505.2,327.7,-0.7,1.8,2470.918,13.29,0.022,293.2
2021-12-23T09:40:03,42.805,6.029,-0.031,0.019,-0.015,100.0,102.0,99.0,13.3,1505.2,326.6,-0.7,1.8,2470.94,13.29,0.036,301.5
2021-12-23T09:43:03,42.805,6.029,-0.008,0.017,0.02,100.0,99.0,101.0,13.4,1505.2,326.3,-0.8,1.8,2470.912,13.29,0.018,334.8
2021-12-23T09:46:03,42.805,6.029,-0.012,0.006,-0.016,100.0,102.0,100.0,13.3,1505.2,326.0,-0.7,1.8,2470.895,13.29,0.013,296.6
2021-12-23T09:49:03,42.805,6.029,-0.031,-0.007,-0.004,101.0,101.0,99.0,13.3,1505.2,327.6,-0.8,1.8,2470.917,13.29,0.031,257.3
2021-12-23T09:52:03,42.805,6.029,-0.005,-0.017,-0.051,100.0,101.0,100.0,13.4,1505.2,327.7,-0.8,1.8,2470.923,13.29,0.017,196.4